Time,TemperatureF,DewpointF,PressureIn,WindDirection,WindDirectionDegrees,WindSpeedMPH,WindSpeedGustMPH,Humidity,HourlyPrecipIn,Conditions,Clouds,dailyrainin,SoftwareType,DateUTC
2013-04-11 00:00:00,73.7,56.5,29.89,WNW,284,0.0,5.0,55,0.00,,,0.00,HR-IXPWINDi_r2_v1.2.,2013-04-11 04:00:00,
2013-04-11 00:05:00,73.5,56.3,29.89,SSW,209,0.0,2.0,55,0.00,,,0.00,HR-IXPWINDi_r2_v1.2.,2013-04-11 04:05:00,
2013-04-11 00:10:00,73.3,56.6,29.88,SSW,209,0.0,2.0,56,0.00,,,0.00,HR-IXPWINDi_r2_v1.2.,2013-04-11 04:10:00,
2013-04-11 00:15:00,73.1,56.4,29.88,West,273,0.0,2.0,56,0.00,,,0.00,HR-IXPWINDi_r2_v1.2.,2013-04-11 04:15:00,
2013-04-11 00:20:00,73.0,56.3,29.88,ESE,113,0.0,2.0,56,0.00,,,0.00,HR-IXPWINDi_r2_v1.2.,2013-04-11 04:20:00,
2013-04-11 00:25:00,72.9,56.2,29.88,WNW,298,0.0,3.0,56,0.00,,,0.00,HR-IXPWINDi_r2_v1.2.,2013-04-11 04:25:00,
2013-04-11 00:30:00,72.9,56.7,29.88,WNW,300,0.0,3.0,57,0.00,,,0.00,HR-IXPWINDi_r2_v1.2.,2013-04-11 04:30:00,
2013-04-11 00:36:00,72.9,56.7,29.88,WNW,302,1.0,3.0,57,0.00,,,0.00,HR-IXPWINDi_r2_v1.2.,2013-04-11 04:36:00,
2013-04-11 00:41:00,73.1,56.9,29.88,NW,319,0.0,5.0,57,0.00,,,0.00,HR-IXPWINDi_r2_v1.2.,2013-04-11 04:41:00,
2013-04-11 00:47:00,73.3,56.6,29.88,WNW,292,0.0,10.0,56,0.00,,,0.00,HR-IXPWINDi_r2_v1.2.,2013-04-11 04:47:00,
2013-04-11 00:52:00,73.3,56.6,29.88,East,85,0.0,10.0,56,0.00,,,0.00,HR-IXPWINDi_r2_v1.2.,2013-04-11 04:52:00,
2013-04-11 00:57:00,73.2,57.0,29.88,SE,144,1.0,4.0,57,0.00,,,0.00,HR-IXPWINDi_r2_v1.2.,2013-04-11 04:57:00,
2013-04-11 01:02:00,73.0,56.8,29.88,NW,306,3.0,3.0,57,0.00,,,0.00,HR-IXPWINDi_r2_v1.2.,2013-04-11 05:02:00,
2013-04-11 01:07:00,73.0,56.8,29.88,SSW,210,0.0,3.0,57,0.00,,,0.00,HR-IXPWINDi_r2_v1.2.,2013-04-11 05:07:00,
2013-04-11 01:13:00,73.0,56.8,29.88,SE,138,0.0,4.0,57,0.00,,,0.00,HR-IXPWINDi_r2_v1.2.,2013-04-11 05:13:00,
2013-04-11 01:18:00,72.7,56.5,29.88,SE,128,0.0,4.0,57,0.00,,,0.00,HR-IXPWINDi_r2_v1.2.,2013-04-11 05:18:00,
2013-04-11 01:23:00,72.5,56.8,29.88,NW,309,0.0,6.0,58,0.00,,,0.00,HR-IXPWINDi_r2_v1.2.,2013-04-11 05:23:00,
2013-04-11 01:28:00,72.3,56.6,29.88,SSW,206,0.0,6.0,58,0.00,,,0.00,HR-IXPWINDi_r2_v1.2.,2013-04-11 05:28:00,
2013-04-11 01:34:00,72.2,56.6,29.88,NW,317,0.0,3.0,58,0.00,,,0.00,HR-IXPWINDi_r2_v1.2.,2013-04-11 05:34:00,
2013-04-11 01:39:00,72.1,56.5,29.88,South,181,0.0,5.0,58,0.00,,,0.00,HR-IXPWINDi_r2_v1.2.,2013-04-11 05:39:00,
2013-04-11 01:44:00,72.0,56.8,29.88,NW,309,0.0,5.0,59,0.00,,,0.00,HR-IXPWINDi_r2_v1.2.,2013-04-11 05:44:00,
2013-04-11 01:49:00,72.1,56.9,29.88,West,273,0.0,5.0,59,0.00,,,0.00,HR-IXPWINDi_r2_v1.2.,2013-04-11 05:49:00,
2013-04-11 01:55:00,72.0,56.8,29.88,South,175,0.0,4.0,59,0.00,,,0.00,HR-IXPWINDi_r2_v1.2.,2013-04-11 05:55:00,
2013-04-11 02:00:00,71.8,56.6,29.87,South,175,0.0,1.0,59,0.00,,,0.00,HR-IXPWINDi_r2_v1.2.,2013-04-11 06:00:00,
2013-04-11 02:05:00,71.6,56.5,29.87,South,179,4.0,4.0,59,0.00,,,0.00,HR-IXPWINDi_r2_v1.2.,2013-04-11 06:05:00,
2013-04-11 02:10:00,71.6,56.9,29.86,NW,318,4.0,4.0,60,0.00,,,0.00,HR-IXPWINDi_r2_v1.2.,2013-04-11 06:10:00,
2013-04-11 02:16:00,71.6,56.5,29.86,WNW,300,1.0,4.0,59,0.00,,,0.00,HR-IXPWINDi_r2_v1.2.,2013-04-11 06:16:00,
2013-04-11 02:21:00,71.5,56.8,29.85,WNW,299,0.0,3.0,60,0.00,,,0.00,HR-IXPWINDi_r2_v1.2.,2013-04-11 06:21:00,
2013-04-11 02:26:00,71.4,56.7,29.85,SSE,164,2.0,3.0,60,0.00,,,0.00,HR-IXPWINDi_r2_v1.2.,2013-04-11 06:26:00,
2013-04-11 02:31:00,71.5,56.8,29.86,NNW,332,0.0,5.0,60,0.00,,,0.00,HR-IXPWINDi_r2_v1.2.,2013-04-11 06:31:00,
2013-04-11 02:37:00,71.4,56.7,29.85,South,170,1.0,5.0,60,0.00,,,0.00,HR-IXPWINDi_r2_v1.2.,2013-04-11 06:37:00,
2013-04-11 02:42:00,71.4,56.7,29.86,NW,318,2.0,4.0,60,0.00,,,0.00,HR-IXPWINDi_r2_v1.2.,2013-04-11 06:42:00,
2013-04-11 02:47:00,71.3,56.6,29.85,NW,311,1.0,4.0,60,0.00,,,0.00,HR-IXPWINDi_r2_v1.2.,2013-04-11 06:47:00,
2013-04-11 02:52:00,71.2,56.6,29.85,NW,311,0.0,4.0,60,0.00,,,0.00,HR-IXPWINDi_r2_v1.2.,2013-04-11 06:52:00,
2013-04-11 02:57:00,70.9,56.7,29.85,NW,313,0.0,3.0,61,0.00,,,0.00,HR-IXPWINDi_r2_v1.2.,2013-04-11 06:57:00,
2013-04-11 03:02:00,70.6,56.4,29.85,NW,313,0.0,1.0,61,0.00,,,0.00,HR-IXPWINDi_r2_v1.2.,2013-04-11 07:02:00,
2013-04-11 03:07:00,70.3,56.6,29.85,NNW,328,0.0,2.0,62,0.00,,,0.00,HR-IXPWINDi_r2_v1.2.,2013-04-11 07:07:00,
2013-04-11 03:12:00,70.1,56.4,29.85,East,101,0.0,2.0,62,0.00,,,0.00,HR-IXPWINDi_r2_v1.2.,2013-04-11 07:12:00,
2013-04-11 03:17:00,70.0,56.3,29.85,WNW,292,0.0,6.0,62,0.00,,,0.00,HR-IXPWINDi_r2_v1.2.,2013-04-11 07:17:00,
2013-04-11 03:23:00,70.0,56.3,29.85,WNW,292,0.0,6.0,62,0.00,,,0.00,HR-IXPWINDi_r2_v1.2.,2013-04-11 07:23:00,
2013-04-11 03:28:00,70.0,56.8,29.85,East,96,2.0,3.0,63,0.00,,,0.00,HR-IXPWINDi_r2_v1.2.,2013-04-11 07:28:00,
2013-04-11 03:33:00,70.0,56.8,29.85,SSE,161,0.0,3.0,63,0.00,,,0.00,HR-IXPWINDi_r2_v1.2.,2013-04-11 07:33:00,
2013-04-11 03:38:00,69.9,56.7,29.85,NW,306,4.0,4.0,63,0.00,,,0.00,HR-IXPWINDi_r2_v1.2.,2013-04-11 07:38:00,
2013-04-11 03:43:00,70.0,56.8,29.85,West,276,0.0,5.0,63,0.00,,,0.00,HR-IXPWINDi_r2_v1.2.,2013-04-11 07:43:00,
2013-04-11 03:48:00,69.9,56.7,29.84,SSE,161,0.0,5.0,63,0.00,,,0.00,HR-IXPWINDi_r2_v1.2.,2013-04-11 07:48:00,
2013-04-11 03:54:00,69.6,56.4,29.85,NNW,333,0.0,2.0,63,0.00,,,0.00,HR-IXPWINDi_r2_v1.2.,2013-04-11 07:54:00,
2013-04-11 03:59:00,69.2,56.4,29.84,NNW,328,0.0,3.0,64,0.00,,,0.00,HR-IXPWINDi_r2_v1.2.,2013-04-11 07:59:00,
2013-04-11 04:04:00,69.0,56.7,29.85,NNW,328,0.0,3.0,65,0.00,,,0.00,HR-IXPWINDi_r2_v1.2.,2013-04-11 08:04:00,
2013-04-11 04:09:00,68.9,56.6,29.84,WSW,238,0.0,3.0,65,0.00,,,0.00,HR-IXPWINDi_r2_v1.2.,2013-04-11 08:09:00,
2013-04-11 04:14:00,68.8,56.5,29.84,South,172,0.0,4.0,65,0.00,,,0.00,HR-IXPWINDi_r2_v1.2.,2013-04-11 08:14:00,
2013-04-11 04:20:00,68.8,56.5,29.84,WNW,302,2.0,7.0,65,0.00,,,0.00,HR-IXPWINDi_r2_v1.2.,2013-04-11 08:20:00,
2013-04-11 04:25:00,68.9,56.6,29.84,NNW,348,0.0,7.0,65,0.00,,,0.00,HR-IXPWINDi_r2_v1.2.,2013-04-11 08:25:00,
2013-04-11 04:30:00,68.8,56.5,29.84,NW,312,0.0,3.0,65,0.00,,,0.00,HR-IXPWINDi_r2_v1.2.,2013-04-11 08:30:00,
2013-04-11 04:35:00,68.8,56.9,29.84,NW,307,0.0,5.0,66,0.00,,,0.00,HR-IXPWINDi_r2_v1.2.,2013-04-11 08:35:00,
2013-04-11 04:41:00,68.9,56.6,29.85,NW,313,1.0,9.0,65,0.00,,,0.00,HR-IXPWINDi_r2_v1.2.,2013-04-11 08:41:00,
2013-04-11 04:46:00,69.0,56.7,29.85,NW,321,1.0,9.0,65,0.00,,,0.00,HR-IXPWINDi_r2_v1.2.,2013-04-11 08:46:00,
2013-04-11 04:51:00,68.7,56.8,29.85,West,273,0.0,5.0,66,0.00,,,0.00,HR-IXPWINDi_r2_v1.2.,2013-04-11 08:51:00,
2013-04-11 04:56:00,68.5,56.6,29.85,WSW,251,2.0,5.0,66,0.00,,,0.00,HR-IXPWINDi_r2_v1.2.,2013-04-11 08:56:00,
2013-04-11 05:01:00,68.4,56.5,29.85,WNW,289,0.0,4.0,66,0.00,,,0.00,HR-IXPWINDi_r2_v1.2.,2013-04-11 09:01:00,
2013-04-11 05:06:00,68.3,56.4,29.85,South,171,0.0,4.0,66,0.00,,,0.00,HR-IXPWINDi_r2_v1.2.,2013-04-11 09:06:00,
2013-04-11 05:11:00,68.3,56.4,29.85,NE,36,0.0,3.0,66,0.00,,,0.00,HR-IXPWINDi_r2_v1.2.,2013-04-11 09:11:00,
2013-04-11 05:16:00,68.3,56.4,29.85,WNW,301,0.0,4.0,66,0.00,,,0.00,HR-IXPWINDi_r2_v1.2.,2013-04-11 09:16:00,
2013-04-11 05:21:00,68.3,56.4,29.85,West,273,0.0,6.0,66,0.00,,,0.00,HR-IXPWINDi_r2_v1.2.,2013-04-11 09:21:00,
2013-04-11 05:26:00,68.3,56.4,29.85,SSW,211,0.0,6.0,66,0.00,,,0.00,HR-IXPWINDi_r2_v1.2.,2013-04-11 09:26:00,
2013-04-11 05:32:00,68.4,56.5,29.85,West,281,0.0,4.0,66,0.00,,,0.00,HR-IXPWINDi_r2_v1.2.,2013-04-11 09:32:00,
2013-04-11 05:37:00,68.4,56.5,29.85,South,179,0.0,4.0,66,0.00,,,0.00,HR-IXPWINDi_r2_v1.2.,2013-04-11 09:37:00,
2013-04-11 05:42:00,68.4,56.5,29.85,South,179,0.0,2.0,66,0.00,,,0.00,HR-IXPWINDi_r2_v1.2.,2013-04-11 09:42:00,
2013-04-11 05:47:00,68.0,56.6,29.85,East,101,0.0,2.0,67,0.00,,,0.00,HR-IXPWINDi_r2_v1.2.,2013-04-11 09:47:00,
2013-04-11 05:52:00,67.8,56.4,29.85,NNE,12,1.0,3.0,67,0.00,,,0.00,HR-IXPWINDi_r2_v1.2.,2013-04-11 09:52:00,
2013-04-11 05:58:00,67.7,56.3,29.85,WSW,240,0.0,3.0,67,0.00,,,0.00,HR-IXPWINDi_r2_v1.2.,2013-04-11 09:58:00,
2013-04-11 06:03:00,67.8,56.4,29.85,SW,221,0.0,6.0,67,0.00,,,0.00,HR-IXPWINDi_r2_v1.2.,2013-04-11 10:03:00,
2013-04-11 06:08:00,67.9,56.5,29.85,SW,215,2.0,6.0,67,0.00,,,0.00,HR-IXPWINDi_r2_v1.2.,2013-04-11 10:08:00,
2013-04-11 06:13:00,67.7,56.3,29.84,NNW,342,0.0,7.0,67,0.00,,,0.00,HR-IXPWINDi_r2_v1.2.,2013-04-11 10:13:00,
2013-04-11 06:18:00,67.3,56.3,29.84,South,178,0.0,7.0,68,0.00,,,0.00,HR-IXPWINDi_r2_v1.2.,2013-04-11 10:18:00,
2013-04-11 06:23:00,67.1,56.5,29.84,SE,140,0.0,5.0,69,0.00,,,0.00,HR-IXPWINDi_r2_v1.2.,2013-04-11 10:23:00,
2013-04-11 06:28:00,67.0,56.4,29.84,WSW,252,0.0,3.0,69,0.00,,,0.00,HR-IXPWINDi_r2_v1.2.,2013-04-11 10:28:00,
2013-04-11 06:33:00,67.1,56.5,29.85,SW,236,0.0,7.0,69,0.00,,,0.00,HR-IXPWINDi_r2_v1.2.,2013-04-11 10:33:00,
2013-04-11 06:38:00,67.2,56.6,29.85,South,180,1.0,7.0,69,0.00,,,0.00,HR-IXPWINDi_r2_v1.2.,2013-04-11 10:38:00,
2013-04-11 06:44:00,67.1,56.1,29.85,NNW,348,0.0,3.0,68,0.00,,,0.00,HR-IXPWINDi_r2_v1.2.,2013-04-11 10:44:00,
2013-04-11 06:49:00,66.6,56.5,29.85,SSE,168,0.0,4.0,70,0.00,,,0.00,HR-IXPWINDi_r2_v1.2.,2013-04-11 10:49:00,
2013-04-11 06:54:00,66.3,56.2,29.85,South,180,0.0,4.0,70,0.00,,,0.00,HR-IXPWINDi_r2_v1.2.,2013-04-11 10:54:00,
2013-04-11 07:00:00,66.1,56.0,29.86,South,180,0.0,3.0,70,0.00,,,0.00,HR-IXPWINDi_r2_v1.2.,2013-04-11 11:00:00,
2013-04-11 07:05:00,65.9,56.2,29.86,South,180,0.0,1.0,71,0.00,,,0.00,HR-IXPWINDi_r2_v1.2.,2013-04-11 11:05:00,
2013-04-11 07:10:00,65.9,56.2,29.86,South,190,3.0,3.0,71,0.00,,,0.00,HR-IXPWINDi_r2_v1.2.,2013-04-11 11:10:00,
2013-04-11 07:15:00,66.3,56.2,29.86,NW,310,0.0,3.0,70,0.00,,,0.00,HR-IXPWINDi_r2_v1.2.,2013-04-11 11:15:00,
2013-04-11 07:20:00,66.7,56.5,29.87,NW,311,0.0,3.0,70,0.00,,,0.00,HR-IXPWINDi_r2_v1.2.,2013-04-11 11:20:00,
2013-04-11 07:25:00,66.9,56.3,29.87,SSW,194,0.0,4.0,69,0.00,,,0.00,HR-IXPWINDi_r2_v1.2.,2013-04-11 11:25:00,
2013-04-11 07:30:00,67.3,56.7,29.87,West,270,2.0,7.0,69,0.00,,,0.00,HR-IXPWINDi_r2_v1.2.,2013-04-11 11:30:00,
2013-04-11 07:36:00,67.7,56.7,29.87,South,184,1.0,7.0,68,0.00,,,0.00,HR-IXPWINDi_r2_v1.2.,2013-04-11 11:36:00,
2013-04-11 07:41:00,67.7,56.7,29.87,SSW,196,0.0,7.0,68,0.00,,,0.00,HR-IXPWINDi_r2_v1.2.,2013-04-11 11:41:00,
2013-04-11 07:46:00,67.9,56.9,29.87,South,185,0.0,8.0,68,0.00,,,0.00,HR-IXPWINDi_r2_v1.2.,2013-04-11 11:46:00,
2013-04-11 07:51:00,67.9,56.9,29.87,South,186,0.0,8.0,68,0.00,,,0.00,HR-IXPWINDi_r2_v1.2.,2013-04-11 11:51:00,
2013-04-11 07:56:00,68.0,56.6,29.87,SSE,163,0.0,3.0,67,0.00,,,0.00,HR-IXPWINDi_r2_v1.2.,2013-04-11 11:56:00,
2013-04-11 08:01:00,68.1,57.1,29.88,South,172,0.0,3.0,68,0.00,,,0.00,HR-IXPWINDi_r2_v1.2.,2013-04-11 12:01:00,
2013-04-11 08:06:00,68.1,57.1,29.88,NW,317,0.0,5.0,68,0.00,,,0.00,HR-IXPWINDi_r2_v1.2.,2013-04-11 12:06:00,
2013-04-11 08:11:00,68.2,56.8,29.88,West,276,1.0,5.0,67,0.00,,,0.00,HR-IXPWINDi_r2_v1.2.,2013-04-11 12:11:00,
2013-04-11 08:17:00,68.3,56.9,29.88,NW,325,0.0,6.0,67,0.00,,,0.00,HR-IXPWINDi_r2_v1.2.,2013-04-11 12:17:00,
2013-04-11 08:22:00,67.9,56.9,29.88,SSW,212,0.0,6.0,68,0.00,,,0.00,HR-IXPWINDi_r2_v1.2.,2013-04-11 12:22:00,
2013-04-11 08:27:00,67.6,57.0,29.88,NW,304,0.0,6.0,69,0.00,,,0.00,HR-IXPWINDi_r2_v1.2.,2013-04-11 12:27:00,
2013-04-11 08:32:00,67.1,56.9,29.88,North,5,0.0,3.0,70,0.00,,,0.00,HR-IXPWINDi_r2_v1.2.,2013-04-11 12:32:00,
2013-04-11 08:38:00,66.9,56.7,29.88,SSW,207,1.0,3.0,70,0.00,,,0.00,HR-IXPWINDi_r2_v1.2.,2013-04-11 12:38:00,
2013-04-11 08:43:00,67.1,56.9,29.89,SSE,156,2.0,6.0,70,0.00,,,0.00,HR-IXPWINDi_r2_v1.2.,2013-04-11 12:43:00,
2013-04-11 08:48:00,67.7,57.1,29.88,SSW,203,1.0,6.0,69,0.00,,,0.00,HR-IXPWINDi_r2_v1.2.,2013-04-11 12:48:00,
2013-04-11 08:53:00,68.5,57.5,29.88,West,275,0.0,6.0,68,0.00,,,0.00,HR-IXPWINDi_r2_v1.2.,2013-04-11 12:53:00,
2013-04-11 08:58:00,69.0,57.5,29.88,SSE,156,0.0,4.0,67,0.00,,,0.00,HR-IXPWINDi_r2_v1.2.,2013-04-11 12:58:00,
2013-04-11 09:03:00,69.5,57.2,29.88,SSE,155,0.0,4.0,65,0.00,,,0.00,HR-IXPWINDi_r2_v1.2.,2013-04-11 13:03:00,
2013-04-11 09:09:00,70.1,57.7,29.88,WSW,250,0.0,5.0,65,0.00,,,0.00,HR-IXPWINDi_r2_v1.2.,2013-04-11 13:09:00,
2013-04-11 09:14:00,70.7,57.9,29.88,WNW,290,0.0,6.0,64,0.00,,,0.00,HR-IXPWINDi_r2_v1.2.,2013-04-11 13:14:00,
2013-04-11 09:19:00,71.1,57.4,29.88,NW,315,3.0,6.0,62,0.00,,,0.00,HR-IXPWINDi_r2_v1.2.,2013-04-11 13:19:00,
2013-04-11 09:24:00,71.5,58.2,29.88,WNW,302,1.0,6.0,63,0.00,,,0.00,HR-IXPWINDi_r2_v1.2.,2013-04-11 13:24:00,
2013-04-11 09:29:00,71.9,58.1,29.88,NW,305,1.0,5.0,62,0.00,,,0.00,HR-IXPWINDi_r2_v1.2.,2013-04-11 13:29:00,
2013-04-11 09:34:00,72.3,58.0,29.88,NNW,342,0.0,4.0,61,0.00,,,0.00,HR-IXPWINDi_r2_v1.2.,2013-04-11 13:34:00,
2013-04-11 09:39:00,72.6,58.3,29.88,WNW,301,4.0,5.0,61,0.00,,,0.00,HR-IXPWINDi_r2_v1.2.,2013-04-11 13:39:00,
2013-04-11 09:44:00,72.5,57.8,29.88,NW,315,0.0,5.0,60,0.00,,,0.00,HR-IXPWINDi_r2_v1.2.,2013-04-11 13:44:00,
2013-04-11 09:50:00,72.7,58.4,29.88,NNW,333,0.0,6.0,61,0.00,,,0.00,HR-IXPWINDi_r2_v1.2.,2013-04-11 13:50:00,
2013-04-11 09:55:00,73.1,57.9,29.88,NNW,334,2.0,7.0,59,0.00,,,0.00,HR-IXPWINDi_r2_v1.2.,2013-04-11 13:55:00,
2013-04-11 10:00:00,73.4,58.1,29.87,NW,313,2.0,7.0,59,0.00,,,0.00,HR-IXPWINDi_r2_v1.2.,2013-04-11 14:00:00,
2013-04-11 10:05:00,73.9,58.1,29.87,NW,304,2.0,5.0,58,0.00,,,0.00,HR-IXPWINDi_r2_v1.2.,2013-04-11 14:05:00,
2013-04-11 10:11:00,74.5,57.7,29.87,NW,313,3.0,7.0,56,0.00,,,0.00,HR-IXPWINDi_r2_v1.2.,2013-04-11 14:11:00,
2013-04-11 10:16:00,75.0,58.7,29.87,NW,318,0.0,7.0,57,0.00,,,0.00,HR-IXPWINDi_r2_v1.2.,2013-04-11 14:16:00,
2013-04-11 10:21:00,75.5,58.2,29.87,North,5,0.0,6.0,55,0.00,,,0.00,HR-IXPWINDi_r2_v1.2.,2013-04-11 14:21:00,
2013-04-11 10:27:00,76.0,58.1,29.87,WNW,297,3.0,5.0,54,0.00,,,0.00,HR-IXPWINDi_r2_v1.2.,2013-04-11 14:27:00,
2013-04-11 10:32:00,76.5,57.5,29.87,NNW,348,2.0,4.0,52,0.00,,,0.00,HR-IXPWINDi_r2_v1.2.,2013-04-11 14:32:00,
2013-04-11 10:37:00,76.8,58.3,29.86,NW,310,0.0,4.0,53,0.00,,,0.00,HR-IXPWINDi_r2_v1.2.,2013-04-11 14:37:00,
2013-04-11 10:42:00,77.1,58.1,29.86,NW,311,3.0,6.0,52,0.00,,,0.00,HR-IXPWINDi_r2_v1.2.,2013-04-11 14:42:00,
2013-04-11 10:47:00,77.4,57.8,29.86,NW,317,0.0,6.0,51,0.00,,,0.00,HR-IXPWINDi_r2_v1.2.,2013-04-11 14:47:00,
2013-04-11 10:52:00,77.7,58.6,29.86,NW,317,4.0,5.0,52,0.00,,,0.00,HR-IXPWINDi_r2_v1.2.,2013-04-11 14:52:00,
2013-04-11 10:58:00,78.4,58.2,29.86,NW,308,0.0,4.0,50,0.00,,,0.00,HR-IXPWINDi_r2_v1.2.,2013-04-11 14:58:00,
2013-04-11 11:03:00,78.7,57.9,29.86,East,94,2.0,4.0,49,0.00,,,0.00,HR-IXPWINDi_r2_v1.2.,2013-04-11 15:03:00,
2013-04-11 11:08:00,79.3,58.4,29.86,East,95,2.0,4.0,49,0.00,,,0.00,HR-IXPWINDi_r2_v1.2.,2013-04-11 15:08:00,
2013-04-11 11:13:00,79.7,56.4,29.85,East,98,0.0,3.0,45,0.00,,,0.00,HR-IXPWINDi_r2_v1.2.,2013-04-11 15:13:00,
2013-04-11 11:19:00,79.9,56.0,29.86,North,10,0.0,5.0,44,0.00,,,0.00,HR-IXPWINDi_r2_v1.2.,2013-04-11 15:19:00,
2013-04-11 11:24:00,79.7,57.0,29.85,NW,316,1.0,5.0,46,0.00,,,0.00,HR-IXPWINDi_r2_v1.2.,2013-04-11 15:24:00,
2013-04-11 11:29:00,79.6,56.3,29.85,WNW,288,0.0,5.0,45,0.00,,,0.00,HR-IXPWINDi_r2_v1.2.,2013-04-11 15:29:00,
2013-04-11 11:34:00,79.7,55.2,29.85,WNW,293,1.0,5.0,43,0.00,,,0.00,HR-IXPWINDi_r2_v1.2.,2013-04-11 15:34:00,
2013-04-11 11:39:00,80.1,58.0,29.85,WNW,293,2.0,5.0,47,0.00,,,0.00,HR-IXPWINDi_r2_v1.2.,2013-04-11 15:39:00,
2013-04-11 11:45:00,80.8,56.8,29.84,SSW,198,0.0,4.0,44,0.00,,,0.00,HR-IXPWINDi_r2_v1.2.,2013-04-11 15:45:00,
2013-04-11 11:50:00,81.3,55.3,29.84,North,9,2.0,4.0,41,0.00,,,0.00,HR-IXPWINDi_r2_v1.2.,2013-04-11 15:50:00,
2013-04-11 11:55:00,80.9,54.3,29.84,North,355,2.0,7.0,40,0.00,,,0.00,HR-IXPWINDi_r2_v1.2.,2013-04-11 15:55:00,
2013-04-11 12:01:00,81.4,54.7,29.83,NE,43,1.0,7.0,40,0.00,,,0.00,HR-IXPWINDi_r2_v1.2.,2013-04-11 16:01:00,
2013-04-11 12:06:00,81.8,52.9,29.83,NNE,23,1.0,3.0,37,0.00,,,0.00,HR-IXPWINDi_r2_v1.2.,2013-04-11 16:06:00,
2013-04-11 12:11:00,82.3,51.9,29.83,WSW,252,1.0,4.0,35,0.00,,,0.00,HR-IXPWINDi_r2_v1.2.,2013-04-11 16:11:00,
2013-04-11 12:16:00,82.6,53.7,29.83,SSE,166,0.0,4.0,37,0.00,,,0.00,HR-IXPWINDi_r2_v1.2.,2013-04-11 16:16:00,
2013-04-11 12:22:00,82.9,51.6,29.83,NNW,345,1.0,8.0,34,0.00,,,0.00,HR-IXPWINDi_r2_v1.2.,2013-04-11 16:22:00,
2013-04-11 12:27:00,83.2,51.9,29.83,West,266,1.0,8.0,34,0.00,,,0.00,HR-IXPWINDi_r2_v1.2.,2013-04-11 16:27:00,
2013-04-11 12:32:00,82.8,51.5,29.82,ENE,75,1.0,6.0,34,0.00,,,0.00,HR-IXPWINDi_r2_v1.2.,2013-04-11 16:32:00,
2013-04-11 12:37:00,82.5,52.8,29.82,SSW,193,0.0,6.0,36,0.00,,,0.00,HR-IXPWINDi_r2_v1.2.,2013-04-11 16:37:00,
2013-04-11 12:42:00,82.2,51.0,29.81,NNW,341,0.0,4.0,34,0.00,,,0.00,HR-IXPWINDi_r2_v1.2.,2013-04-11 16:42:00,
2013-04-11 12:47:00,82.7,50.6,29.81,East,86,1.0,8.0,33,0.00,,,0.00,HR-IXPWINDi_r2_v1.2.,2013-04-11 16:47:00,
2013-04-11 12:52:00,83.4,50.4,29.81,West,269,4.0,10.0,32,0.00,,,0.00,HR-IXPWINDi_r2_v1.2.,2013-04-11 16:52:00,
2013-04-11 12:58:00,84.1,53.5,29.81,ENE,74,0.0,10.0,35,0.00,,,0.00,HR-IXPWINDi_r2_v1.2.,2013-04-11 16:58:00,
2013-04-11 13:03:00,84.2,51.1,29.80,ESE,110,2.0,6.0,32,0.00,,,0.00,HR-IXPWINDi_r2_v1.2.,2013-04-11 17:03:00,
2013-04-11 13:08:00,84.1,53.5,29.80,NNE,26,1.0,5.0,35,0.00,,,0.00,HR-IXPWINDi_r2_v1.2.,2013-04-11 17:08:00,
2013-04-11 13:13:00,85.1,51.9,29.80,NNW,341,0.0,5.0,32,0.00,,,0.00,HR-IXPWINDi_r2_v1.2.,2013-04-11 17:13:00,
2013-04-11 13:18:00,85.7,51.6,29.79,NW,308,4.0,5.0,31,0.00,,,0.00,HR-IXPWINDi_r2_v1.2.,2013-04-11 17:18:00,
2013-04-11 13:24:00,86.2,53.7,29.79,NW,323,2.0,6.0,33,0.00,,,0.00,HR-IXPWINDi_r2_v1.2.,2013-04-11 17:24:00,
2013-04-11 13:29:00,86.2,52.9,29.79,NW,315,2.0,13.0,32,0.00,,,0.00,HR-IXPWINDi_r2_v1.2.,2013-04-11 17:29:00,
2013-04-11 13:34:00,86.2,52.0,29.79,NW,319,0.0,13.0,31,0.00,,,0.00,HR-IXPWINDi_r2_v1.2.,2013-04-11 17:34:00,
2013-04-11 13:39:00,86.5,49.5,29.79,West,270,2.0,7.0,28,0.00,,,0.00,HR-IXPWINDi_r2_v1.2.,2013-04-11 17:39:00,
2013-04-11 13:45:00,86.3,52.1,29.78,WNW,294,0.0,8.0,31,0.00,,,0.00,HR-IXPWINDi_r2_v1.2.,2013-04-11 17:45:00,
2013-04-11 13:50:00,86.5,49.5,29.78,WNW,299,1.0,8.0,28,0.00,,,0.00,HR-IXPWINDi_r2_v1.2.,2013-04-11 17:50:00,
2013-04-11 13:55:00,87.0,51.8,29.78,SE,144,2.0,6.0,30,0.00,,,0.00,HR-IXPWINDi_r2_v1.2.,2013-04-11 17:55:00,
2013-04-11 14:00:00,86.8,52.5,29.77,North,5,1.0,7.0,31,0.00,,,0.00,HR-IXPWINDi_r2_v1.2.,2013-04-11 18:00:00,
2013-04-11 14:05:00,86.6,51.5,29.77,NW,308,0.0,7.0,30,0.00,,,0.00,HR-IXPWINDi_r2_v1.2.,2013-04-11 18:05:00,
2013-04-11 14:10:00,86.7,53.3,29.77,East,87,1.0,7.0,32,0.00,,,0.00,HR-IXPWINDi_r2_v1.2.,2013-04-11 18:10:00,
2013-04-11 14:15:00,86.5,52.3,29.77,South,171,0.0,9.0,31,0.00,,,0.00,HR-IXPWINDi_r2_v1.2.,2013-04-11 18:15:00,
2013-04-11 14:21:00,85.7,51.6,29.77,WNW,301,3.0,11.0,31,0.00,,,0.00,HR-IXPWINDi_r2_v1.2.,2013-04-11 18:21:00,
2013-04-11 14:26:00,85.0,50.1,29.77,North,9,3.0,11.0,30,0.00,,,0.00,HR-IXPWINDi_r2_v1.2.,2013-04-11 18:26:00,
2013-04-11 14:31:00,84.5,53.0,29.77,ENE,62,1.0,9.0,34,0.00,,,0.00,HR-IXPWINDi_r2_v1.2.,2013-04-11 18:31:00,
2013-04-11 14:36:00,84.3,51.2,29.76,ESE,108,0.0,7.0,32,0.00,,,0.00,HR-IXPWINDi_r2_v1.2.,2013-04-11 18:36:00,
2013-04-11 14:41:00,84.2,52.0,29.76,East,84,3.0,8.0,33,0.00,,,0.00,HR-IXPWINDi_r2_v1.2.,2013-04-11 18:41:00,
2013-04-11 14:46:00,83.5,49.7,29.76,SE,135,2.0,12.0,31,0.00,,,0.00,HR-IXPWINDi_r2_v1.2.,2013-04-11 18:46:00,
2013-04-11 14:52:00,83.6,50.6,29.76,East,90,0.0,12.0,32,0.00,,,0.00,HR-IXPWINDi_r2_v1.2.,2013-04-11 18:52:00,
2013-04-11 14:57:00,84.0,48.3,29.75,ENE,57,1.0,8.0,29,0.00,,,0.00,HR-IXPWINDi_r2_v1.2.,2013-04-11 18:57:00,
2013-04-11 15:02:00,84.6,48.8,29.75,South,173,4.0,8.0,29,0.00,,,0.00,HR-IXPWINDi_r2_v1.2.,2013-04-11 19:02:00,
2013-04-11 15:07:00,85.0,51.0,29.75,East,95,1.0,5.0,31,0.00,,,0.00,HR-IXPWINDi_r2_v1.2.,2013-04-11 19:07:00,
2013-04-11 15:13:00,84.9,53.4,29.75,NE,40,0.0,5.0,34,0.00,,,0.00,HR-IXPWINDi_r2_v1.2.,2013-04-11 19:13:00,
2013-04-11 15:18:00,84.4,52.9,29.74,ESE,107,3.0,5.0,34,0.00,,,0.00,HR-IXPWINDi_r2_v1.2.,2013-04-11 19:18:00,
2013-04-11 15:23:00,83.7,53.1,29.75,NE,55,4.0,6.0,35,0.00,,,0.00,HR-IXPWINDi_r2_v1.2.,2013-04-11 19:23:00,
2013-04-11 15:29:00,83.3,55.0,29.74,NNE,13,2.0,6.0,38,0.00,,,0.00,HR-IXPWINDi_r2_v1.2.,2013-04-11 19:29:00,
2013-04-11 15:34:00,83.0,56.2,29.74,ENE,78,2.0,8.0,40,0.00,,,0.00,HR-IXPWINDi_r2_v1.2.,2013-04-11 19:34:00,
2013-04-11 15:39:00,82.5,57.1,29.74,West,259,3.0,8.0,42,0.00,,,0.00,HR-IXPWINDi_r2_v1.2.,2013-04-11 19:39:00,
2013-04-11 15:44:00,82.1,56.7,29.74,ESE,114,0.0,6.0,42,0.00,,,0.00,HR-IXPWINDi_r2_v1.2.,2013-04-11 19:44:00,
2013-04-11 15:49:00,82.2,57.4,29.74,NNW,343,1.0,6.0,43,0.00,,,0.00,HR-IXPWINDi_r2_v1.2.,2013-04-11 19:49:00,
2013-04-11 15:54:00,82.4,57.0,29.74,WNW,291,2.0,4.0,42,0.00,,,0.00,HR-IXPWINDi_r2_v1.2.,2013-04-11 19:54:00,
2013-04-11 15:59:00,82.6,55.1,29.74,South,169,3.0,4.0,39,0.00,,,0.00,HR-IXPWINDi_r2_v1.2.,2013-04-11 19:59:00,
2013-04-11 16:05:00,83.4,52.1,29.73,NW,313,0.0,6.0,34,0.00,,,0.00,HR-IXPWINDi_r2_v1.2.,2013-04-11 20:05:00,
2013-04-11 16:10:00,84.0,53.4,29.73,South,189,0.0,6.0,35,0.00,,,0.00,HR-IXPWINDi_r2_v1.2.,2013-04-11 20:10:00,
2013-04-11 16:15:00,84.3,55.2,29.73,East,101,0.0,13.0,37,0.00,,,0.00,HR-IXPWINDi_r2_v1.2.,2013-04-11 20:15:00,
2013-04-11 16:20:00,83.9,56.3,29.73,WNW,298,2.0,13.0,39,0.00,,,0.00,HR-IXPWINDi_r2_v1.2.,2013-04-11 20:20:00,
2013-04-11 16:25:00,83.2,57.0,29.73,ESE,117,11.0,11.0,41,0.00,,,0.00,HR-IXPWINDi_r2_v1.2.,2013-04-11 20:25:00,
2013-04-11 16:30:00,82.7,57.9,29.72,SE,144,1.0,11.0,43,0.00,,,0.00,HR-IXPWINDi_r2_v1.2.,2013-04-11 20:30:00,
2013-04-11 16:36:00,83.1,57.6,29.73,NW,311,0.0,11.0,42,0.00,,,0.00,HR-IXPWINDi_r2_v1.2.,2013-04-11 20:36:00,
2013-04-11 16:41:00,83.2,57.0,29.72,East,92,2.0,12.0,41,0.00,,,0.00,HR-IXPWINDi_r2_v1.2.,2013-04-11 20:41:00,
2013-04-11 16:46:00,83.2,57.7,29.72,West,276,3.0,12.0,42,0.00,,,0.00,HR-IXPWINDi_r2_v1.2.,2013-04-11 20:46:00,
2013-04-11 16:51:00,83.1,57.6,29.72,North,350,2.0,7.0,42,0.00,,,0.00,HR-IXPWINDi_r2_v1.2.,2013-04-11 20:51:00,
2013-04-11 16:57:00,82.7,57.9,29.72,NNE,14,1.0,9.0,43,0.00,,,0.00,HR-IXPWINDi_r2_v1.2.,2013-04-11 20:57:00,
2013-04-11 17:02:00,82.4,57.0,29.72,South,179,0.0,9.0,42,0.00,,,0.00,HR-IXPWINDi_r2_v1.2.,2013-04-11 21:02:00,
2013-04-11 17:07:00,82.2,58.1,29.73,ESE,105,1.0,5.0,44,0.00,,,0.00,HR-IXPWINDi_r2_v1.2.,2013-04-11 21:07:00,
2013-04-11 17:12:00,81.9,57.2,29.72,NW,325,0.0,5.0,43,0.00,,,0.00,HR-IXPWINDi_r2_v1.2.,2013-04-11 21:12:00,
2013-04-11 17:18:00,81.4,56.7,29.73,NNE,13,3.0,6.0,43,0.00,,,0.00,HR-IXPWINDi_r2_v1.2.,2013-04-11 21:18:00,
2013-04-11 17:23:00,80.7,55.4,29.72,SW,236,2.0,8.0,42,0.00,,,0.00,HR-IXPWINDi_r2_v1.2.,2013-04-11 21:23:00,
2013-04-11 17:28:00,80.5,57.2,29.72,NW,314,0.0,8.0,45,0.00,,,0.00,HR-IXPWINDi_r2_v1.2.,2013-04-11 21:28:00,
2013-04-11 17:33:00,80.3,55.7,29.72,SSW,202,1.0,4.0,43,0.00,,,0.00,HR-IXPWINDi_r2_v1.2.,2013-04-11 21:33:00,
2013-04-11 17:39:00,80.0,56.7,29.72,NNW,340,2.0,5.0,45,0.00,,,0.00,HR-IXPWINDi_r2_v1.2.,2013-04-11 21:39:00,
2013-04-11 17:44:00,79.5,56.3,29.72,NE,34,2.0,8.0,45,0.00,,,0.00,HR-IXPWINDi_r2_v1.2.,2013-04-11 21:44:00,
2013-04-11 17:49:00,79.3,56.1,29.72,South,185,0.0,8.0,45,0.00,,,0.00,HR-IXPWINDi_r2_v1.2.,2013-04-11 21:49:00,
2013-04-11 17:54:00,79.2,56.0,29.72,NE,46,2.0,4.0,45,0.00,,,0.00,HR-IXPWINDi_r2_v1.2.,2013-04-11 21:54:00,
2013-04-11 18:00:00,79.5,56.3,29.72,SSE,165,3.0,4.0,45,0.00,,,0.00,HR-IXPWINDi_r2_v1.2.,2013-04-11 22:00:00,
2013-04-11 18:05:00,79.5,55.6,29.73,NW,323,1.0,6.0,44,0.00,,,0.00,HR-IXPWINDi_r2_v1.2.,2013-04-11 22:05:00,
2013-04-11 18:10:00,79.4,56.2,29.73,South,171,8.0,8.0,45,0.00,,,0.00,HR-IXPWINDi_r2_v1.2.,2013-04-11 22:10:00,
2013-04-11 18:15:00,78.8,55.6,29.73,South,175,0.0,10.0,45,0.00,,,0.00,HR-IXPWINDi_r2_v1.2.,2013-04-11 22:15:00,
2013-04-11 18:20:00,78.5,56.6,29.73,East,82,1.0,10.0,47,0.00,,,0.00,HR-IXPWINDi_r2_v1.2.,2013-04-11 22:20:00,
2013-04-11 18:25:00,78.3,56.4,29.73,WNW,303,0.0,8.0,47,0.00,,,0.00,HR-IXPWINDi_r2_v1.2.,2013-04-11 22:25:00,
2013-04-11 18:30:00,78.2,56.3,29.73,NNW,346,3.0,8.0,47,0.00,,,0.00,HR-IXPWINDi_r2_v1.2.,2013-04-11 22:30:00,
2013-04-11 18:36:00,78.1,55.6,29.73,South,182,0.0,7.0,46,0.00,,,0.00,HR-IXPWINDi_r2_v1.2.,2013-04-11 22:36:00,
2013-04-11 18:41:00,77.9,55.4,29.73,SE,142,1.0,9.0,46,0.00,,,0.00,HR-IXPWINDi_r2_v1.2.,2013-04-11 22:41:00,
2013-04-11 18:46:00,77.7,55.8,29.73,SSE,166,5.0,9.0,47,0.00,,,0.00,HR-IXPWINDi_r2_v1.2.,2013-04-11 22:46:00,
2013-04-11 18:51:00,77.6,55.1,29.73,North,11,1.0,6.0,46,0.00,,,0.00,HR-IXPWINDi_r2_v1.2.,2013-04-11 22:51:00,
2013-04-11 18:56:00,77.4,55.5,29.73,South,175,0.0,6.0,47,0.00,,,0.00,HR-IXPWINDi_r2_v1.2.,2013-04-11 22:56:00,
2013-04-11 19:01:00,77.3,55.5,29.73,East,96,0.0,5.0,47,0.00,,,0.00,HR-IXPWINDi_r2_v1.2.,2013-04-11 23:01:00,
2013-04-11 19:06:00,77.1,55.3,29.73,SE,139,1.0,1.0,47,0.00,,,0.00,HR-IXPWINDi_r2_v1.2.,2013-04-11 23:06:00,
2013-04-11 19:11:00,77.0,55.2,29.73,SSW,194,0.0,4.0,47,0.00,,,0.00,HR-IXPWINDi_r2_v1.2.,2013-04-11 23:11:00,
2013-04-11 19:17:00,76.8,55.6,29.73,West,269,0.0,9.0,48,0.00,,,0.00,HR-IXPWINDi_r2_v1.2.,2013-04-11 23:17:00,
2013-04-11 19:22:00,76.6,55.4,29.73,West,269,0.0,9.0,48,0.00,,,0.00,HR-IXPWINDi_r2_v1.2.,2013-04-11 23:22:00,
2013-04-11 19:27:00,76.4,55.2,29.73,West,275,0.0,1.0,48,0.00,,,0.00,HR-IXPWINDi_r2_v1.2.,2013-04-11 23:27:00,
2013-04-11 19:33:00,76.2,55.6,29.73,SSE,148,1.0,1.0,49,0.00,,,0.00,HR-IXPWINDi_r2_v1.2.,2013-04-11 23:33:00,
2013-04-11 19:38:00,76.1,56.1,29.73,SSW,207,0.0,2.0,50,0.00,,,0.00,HR-IXPWINDi_r2_v1.2.,2013-04-11 23:38:00,
2013-04-11 19:43:00,75.9,56.4,29.73,NW,319,0.0,2.0,51,0.00,,,0.00,HR-IXPWINDi_r2_v1.2.,2013-04-11 23:43:00,
2013-04-11 19:48:00,75.7,56.2,29.73,NNW,331,0.0,6.0,51,0.00,,,0.00,HR-IXPWINDi_r2_v1.2.,2013-04-11 23:48:00,
2013-04-11 19:54:00,75.5,56.6,29.73,NW,305,0.0,6.0,52,0.00,,,0.00,HR-IXPWINDi_r2_v1.2.,2013-04-11 23:54:00,
2013-04-11 19:59:00,75.4,57.0,29.73,NE,39,0.0,3.0,53,0.00,,,0.00,HR-IXPWINDi_r2_v1.2.,2013-04-11 23:59:00,
2013-04-11 20:04:00,75.2,56.8,29.73,South,189,0.0,3.0,53,0.00,,,0.00,HR-IXPWINDi_r2_v1.2.,2013-04-12 00:04:00,
2013-04-11 20:09:00,75.1,57.3,29.73,South,180,2.0,3.0,54,0.00,,,0.00,HR-IXPWINDi_r2_v1.2.,2013-04-12 00:09:00,
2013-04-11 20:14:00,75.0,57.2,29.72,South,171,1.0,3.0,54,0.00,,,0.00,HR-IXPWINDi_r2_v1.2.,2013-04-12 00:14:00,
2013-04-11 20:19:00,74.7,57.4,29.72,South,171,0.0,3.0,55,0.00,,,0.00,HR-IXPWINDi_r2_v1.2.,2013-04-12 00:19:00,
2013-04-11 20:25:00,74.5,57.2,29.72,South,171,0.0,1.0,55,0.00,,,0.00,HR-IXPWINDi_r2_v1.2.,2013-04-12 00:25:00,
2013-04-11 20:30:00,74.2,57.4,29.72,South,171,0.0,0.0,56,0.00,,,0.00,HR-IXPWINDi_r2_v1.2.,2013-04-12 00:30:00,
2013-04-11 20:35:00,73.8,57.6,29.72,South,171,0.0,0.0,57,0.00,,,0.00,HR-IXPWINDi_r2_v1.2.,2013-04-12 00:35:00,
2013-04-11 20:40:00,73.3,57.1,29.72,South,171,0.0,0.0,57,0.00,,,0.00,HR-IXPWINDi_r2_v1.2.,2013-04-12 00:40:00,
2013-04-11 20:46:00,73.0,57.3,29.72,South,171,0.0,0.0,58,0.00,,,0.00,HR-IXPWINDi_r2_v1.2.,2013-04-12 00:46:00,
2013-04-11 20:51:00,72.5,57.3,29.72,South,171,0.0,0.0,59,0.00,,,0.00,HR-IXPWINDi_r2_v1.2.,2013-04-12 00:51:00,
2013-04-11 20:56:00,72.2,57.5,29.72,SSW,202,2.0,3.0,60,0.00,,,0.00,HR-IXPWINDi_r2_v1.2.,2013-04-12 00:56:00,
2013-04-11 21:01:00,72.1,56.9,29.72,SSW,206,0.0,3.0,59,0.00,,,0.00,HR-IXPWINDi_r2_v1.2.,2013-04-12 01:01:00,
2013-04-11 21:06:00,71.8,57.6,29.72,South,182,0.0,3.0,61,0.00,,,0.00,HR-IXPWINDi_r2_v1.2.,2013-04-12 01:06:00,
2013-04-11 21:11:00,71.6,57.4,29.72,South,182,0.0,2.0,61,0.00,,,0.00,HR-IXPWINDi_r2_v1.2.,2013-04-12 01:11:00,
2013-04-11 21:17:00,71.5,57.7,29.72,South,183,0.0,1.0,62,0.00,,,0.00,HR-IXPWINDi_r2_v1.2.,2013-04-12 01:17:00,
2013-04-11 21:22:00,71.6,57.8,29.72,South,183,0.0,1.0,62,0.00,,,0.00,HR-IXPWINDi_r2_v1.2.,2013-04-12 01:22:00,
2013-04-11 21:27:00,71.7,57.5,29.72,South,183,0.0,1.0,61,0.00,,,0.00,HR-IXPWINDi_r2_v1.2.,2013-04-12 01:27:00,
2013-04-11 21:32:00,71.7,57.9,29.72,South,183,0.0,0.0,62,0.00,,,0.00,HR-IXPWINDi_r2_v1.2.,2013-04-12 01:32:00,
2013-04-11 21:38:00,71.8,58.0,29.72,ENE,63,0.0,2.0,62,0.00,,,0.00,HR-IXPWINDi_r2_v1.2.,2013-04-12 01:38:00,
2013-04-11 21:43:00,71.9,58.6,29.72,East,96,0.0,2.0,63,0.00,,,0.00,HR-IXPWINDi_r2_v1.2.,2013-04-12 01:43:00,
2013-04-11 21:48:00,71.9,58.1,29.72,South,177,6.0,8.0,62,0.00,,,0.00,HR-IXPWINDi_r2_v1.2.,2013-04-12 01:48:00,
2013-04-11 21:53:00,72.3,58.9,29.72,East,89,1.0,8.0,63,0.00,,,0.00,HR-IXPWINDi_r2_v1.2.,2013-04-12 01:53:00,
2013-04-11 21:58:00,72.7,58.9,29.72,ENE,75,0.0,6.0,62,0.00,,,0.00,HR-IXPWINDi_r2_v1.2.,2013-04-12 01:58:00,
2013-04-11 22:04:00,73.0,59.2,29.72,NE,46,1.0,4.0,62,0.00,,,0.00,HR-IXPWINDi_r2_v1.2.,2013-04-12 02:04:00,
2013-04-11 22:09:00,73.3,59.4,29.72,ESE,103,0.0,7.0,62,0.00,,,0.00,HR-IXPWINDi_r2_v1.2.,2013-04-12 02:09:00,
2013-04-11 22:14:00,73.3,59.0,29.72,ESE,103,0.0,7.0,61,0.00,,,0.00,HR-IXPWINDi_r2_v1.2.,2013-04-12 02:14:00,
2013-04-11 22:19:00,73.3,59.4,29.72,ESE,103,0.0,1.0,62,0.00,,,0.00,HR-IXPWINDi_r2_v1.2.,2013-04-12 02:19:00,
2013-04-11 22:25:00,73.3,59.9,29.71,South,170,0.0,7.0,63,0.00,,,0.00,HR-IXPWINDi_r2_v1.2.,2013-04-12 02:25:00,
2013-04-11 22:30:00,73.5,60.1,29.72,NNW,335,0.0,7.0,63,0.00,,,0.00,HR-IXPWINDi_r2_v1.2.,2013-04-12 02:30:00,
2013-04-11 22:35:00,73.7,60.3,29.71,SE,141,5.0,9.0,63,0.00,,,0.00,HR-IXPWINDi_r2_v1.2.,2013-04-12 02:35:00,
2013-04-11 22:40:00,73.9,60.9,29.71,South,175,4.0,11.0,64,0.00,,,0.00,HR-IXPWINDi_r2_v1.2.,2013-04-12 02:40:00,
2013-04-11 22:45:00,73.9,60.9,29.71,NNW,342,0.0,11.0,64,0.00,,,0.00,HR-IXPWINDi_r2_v1.2.,2013-04-12 02:45:00,
2013-04-11 22:50:00,73.8,60.8,29.70,North,5,2.0,7.0,64,0.00,,,0.00,HR-IXPWINDi_r2_v1.2.,2013-04-12 02:50:00,
2013-04-11 22:56:00,73.7,60.7,29.70,NNW,342,0.0,5.0,64,0.00,,,0.00,HR-IXPWINDi_r2_v1.2.,2013-04-12 02:56:00,
2013-04-11 23:01:00,73.8,60.8,29.70,NNE,28,1.0,11.0,64,0.00,,,0.00,HR-IXPWINDi_r2_v1.2.,2013-04-12 03:01:00,
2013-04-11 23:07:00,73.8,60.8,29.69,ESE,109,3.0,11.0,64,0.00,,,0.00,HR-IXPWINDi_r2_v1.2.,2013-04-12 03:07:00,
2013-04-11 23:12:00,73.7,60.7,29.70,North,360,0.0,7.0,64,0.00,,,0.00,HR-IXPWINDi_r2_v1.2.,2013-04-12 03:12:00,
2013-04-11 23:17:00,73.6,61.1,29.70,ESE,114,0.0,9.0,65,0.00,,,0.00,HR-IXPWINDi_r2_v1.2.,2013-04-12 03:17:00,
2013-04-11 23:22:00,73.5,61.0,29.70,East,82,1.0,9.0,65,0.00,,,0.00,HR-IXPWINDi_r2_v1.2.,2013-04-12 03:22:00,
2013-04-11 23:27:00,73.4,60.9,29.70,NW,308,1.0,6.0,65,0.00,,,0.00,HR-IXPWINDi_r2_v1.2.,2013-04-12 03:27:00,
2013-04-11 23:32:00,73.3,60.8,29.69,NW,308,0.0,6.0,65,0.00,,,0.00,HR-IXPWINDi_r2_v1.2.,2013-04-12 03:32:00,
2013-04-11 23:38:00,73.2,61.1,29.68,East,99,2.0,4.0,66,0.00,,,0.00,HR-IXPWINDi_r2_v1.2.,2013-04-12 03:38:00,
2013-04-11 23:43:00,73.1,61.0,29.69,North,350,0.0,5.0,66,0.00,,,0.00,HR-IXPWINDi_r2_v1.2.,2013-04-12 03:43:00,
2013-04-11 23:48:00,73.1,61.0,29.70,East,88,1.0,5.0,66,0.00,,,0.00,HR-IXPWINDi_r2_v1.2.,2013-04-12 03:48:00,
2013-04-11 23:53:00,73.0,61.3,29.69,NNE,24,2.0,11.0,67,0.00,,,0.00,HR-IXPWINDi_r2_v1.2.,2013-04-12 03:53:00,
2013-04-11 23:58:00,73.0,61.3,29.69,NE,48,1.0,11.0,67,0.00,,,0.00,HR-IXPWINDi_r2_v1.2.,2013-04-12 03:58:00,